JBU2901 KBUF-KJFK

Flight info

Callsign JBU2901
Flight time N/A
Altitude 31000
Route GEE BEEPS MEMMS PUCKY1
Aircraft A320/M-SDE3FGHIRWY/LB1

Departure

Time 2026-05-05 20:36
Airport Buffalo Niagara International Airport (KBUF)

Arrival

Time N/A
Airport John F. Kennedy International Airport (KJFK)
Time Latitude Longitude Altitude Speed Heading
2026-05-05 20:21 42.93488 -78.73250 711 ft 0 kts 133°
2026-05-05 20:27 42.93498 -78.73265 713 ft 4 kts 136°
2026-05-05 20:27 42.93514 -78.73286 715 ft 4 kts 127°
2026-05-05 20:27 42.93521 -78.73315 716 ft 4 kts 68°
2026-05-05 20:27 42.93507 -78.73343 716 ft 2 kts 44°
2026-05-05 20:28 42.93506 -78.73344 716 ft 1 kts 44°
2026-05-05 20:31 42.93508 -78.73342 716 ft 1 kts 44°
2026-05-05 20:31 42.93524 -78.73321 713 ft 5 kts 44°
2026-05-05 20:31 42.93559 -78.73273 713 ft 10 kts 45°
2026-05-05 20:32 42.93626 -78.73185 710 ft 16 kts 41°
2026-05-05 20:32 42.93716 -78.73075 710 ft 18 kts 42°
2026-05-05 20:32 42.93818 -78.72976 713 ft 16 kts 352°
2026-05-05 20:32 42.93914 -78.72919 718 ft 17 kts 42°
2026-05-05 20:33 42.94013 -78.72795 716 ft 21 kts 43°
2026-05-05 20:33 42.94116 -78.72660 717 ft 19 kts 44°
2026-05-05 20:33 42.94206 -78.72539 719 ft 16 kts 44°
2026-05-05 20:33 42.94273 -78.72449 721 ft 11 kts 44°
2026-05-05 20:34 42.94327 -78.72376 719 ft 12 kts 45°
2026-05-05 20:34 42.94399 -78.72286 719 ft 16 kts 43°
2026-05-05 20:34 42.94485 -78.72176 718 ft 19 kts 43°
2026-05-05 20:34 42.94597 -78.72028 717 ft 25 kts 45°
2026-05-05 20:35 42.94731 -78.71842 717 ft 30 kts 46°
2026-05-05 20:35 42.94846 -78.71885 719 ft 18 kts 297°
2026-05-05 20:35 42.94779 -78.71995 719 ft 32 kts 224°
2026-05-05 20:35 42.94459 -78.72415 721 ft 93 kts 224°
2026-05-05 20:36 42.93869 -78.73191 718 ft 140 kts 224°
2026-05-05 20:36 42.93152 -78.74148 1174 ft 144 kts 225°
2026-05-05 20:36 42.92439 -78.75117 1768 ft 145 kts 227°
2026-05-05 20:36 42.91532 -78.75819 2098 ft 170 kts 193°
2026-05-05 20:37 42.90269 -78.75479 2343 ft 207 kts 156°
2026-05-05 20:37 42.89180 -78.73962 2605 ft 245 kts 118°
2026-05-05 20:37 42.88815 -78.71862 2963 ft 271 kts 98°
2026-05-05 20:37 42.88642 -78.69198 3522 ft 289 kts 96°
2026-05-05 20:38 42.88520 -78.66422 4276 ft 297 kts 96°
2026-05-05 20:38 42.88409 -78.63567 5135 ft 304 kts 97°
2026-05-05 20:38 42.88291 -78.60663 5985 ft 309 kts 97°
2026-05-05 20:38 42.88161 -78.57732 6795 ft 312 kts 98°
2026-05-05 20:39 42.88016 -78.54762 7591 ft 316 kts 99°
2026-05-05 20:39 42.87860 -78.51743 8401 ft 321 kts 99°
2026-05-05 20:39 42.87696 -78.48682 9201 ft 326 kts 99°
2026-05-05 20:39 42.87529 -78.45578 9933 ft 332 kts 99°
2026-05-05 20:40 42.87351 -78.42348 10213 ft 353 kts 99°
2026-05-05 20:40 42.87158 -78.38940 10362 ft 376 kts 99°
2026-05-05 20:40 42.86954 -78.35300 10682 ft 391 kts 98°
2026-05-05 20:40 42.86753 -78.31562 11272 ft 397 kts 98°
2026-05-05 20:41 42.86554 -78.27775 11925 ft 401 kts 98°
2026-05-05 20:41 42.86357 -78.24006 12492 ft 407 kts 98°
2026-05-05 20:41 42.86151 -78.20139 13104 ft 412 kts 98°
2026-05-05 20:41 42.85936 -78.16219 13693 ft 417 kts 98°
2026-05-05 20:42 42.85715 -78.12265 14245 ft 420 kts 98°
2026-05-05 20:42 42.85487 -78.08275 14816 ft 423 kts 98°
2026-05-05 20:42 42.85256 -78.04262 15393 ft 426 kts 98°
2026-05-05 20:42 42.85022 -78.00224 15968 ft 429 kts 98°
2026-05-05 20:43 42.84789 -77.96161 16554 ft 431 kts 98°
2026-05-05 20:43 42.84553 -77.92072 17141 ft 434 kts 98°
2026-05-05 20:43 42.84315 -77.87962 17752 ft 436 kts 98°
2026-05-05 20:43 42.84073 -77.83816 18324 ft 439 kts 98°
2026-05-05 20:44 42.83827 -77.79654 18863 ft 443 kts 98°
2026-05-05 20:44 42.83578 -77.75492 19412 ft 448 kts 98°
2026-05-05 20:44 42.83344 -77.71235 19960 ft 453 kts 97°
2026-05-05 20:44 42.83202 -77.66928 20535 ft 458 kts 95°
2026-05-05 20:45 42.83109 -77.58163 21442 ft 467 kts 93°
2026-05-05 20:45 42.83088 -77.53719 21934 ft 469 kts 92°
2026-05-05 20:45 42.83053 -77.49263 22396 ft 472 kts 93°
2026-05-05 20:46 42.82996 -77.44779 22823 ft 475 kts 93°
2026-05-05 20:46 42.82919 -77.40258 23256 ft 479 kts 94°
2026-05-05 20:46 42.82826 -77.35702 23666 ft 482 kts 94°
2026-05-05 20:46 42.82728 -77.31185 24024 ft 485 kts 94°
2026-05-05 20:47 42.82628 -77.26565 24360 ft 488 kts 94°
2026-05-05 20:47 42.82530 -77.21922 24674 ft 491 kts 94°
2026-05-05 20:47 42.82432 -77.17265 25073 ft 492 kts 93°
2026-05-05 20:47 42.82337 -77.12603 25424 ft 494 kts 93°
2026-05-05 20:48 42.82243 -77.07915 25778 ft 497 kts 93°
2026-05-05 20:48 42.81970 -77.03221 26090 ft 497 kts 101°
2026-05-05 20:48 42.81222 -76.98634 26397 ft 496 kts 111°
2026-05-05 20:48 42.80008 -76.94258 26695 ft 493 kts 120°
2026-05-05 20:49 42.78373 -76.90167 26998 ft 491 kts 127°
2026-05-05 20:49 42.76593 -76.86180 27284 ft 494 kts 126°
2026-05-05 20:49 42.74812 -76.82171 27655 ft 495 kts 126°
2026-05-05 20:49 42.73034 -76.78156 28007 ft 497 kts 126°
2026-05-05 20:50 42.71247 -76.74122 28374 ft 498 kts 126°
2026-05-05 20:50 42.70060 -76.71450 28658 ft 498 kts 126°
2026-05-05 20:50 42.67684 -76.66118 29200 ft 498 kts 126°
2026-05-05 20:50 42.65883 -76.62089 29619 ft 499 kts 126°
2026-05-05 20:51 42.64082 -76.58063 30015 ft 499 kts 126°
2026-05-05 20:51 42.62278 -76.54038 30363 ft 499 kts 126°
2026-05-05 20:51 42.60468 -76.50008 30690 ft 499 kts 126°
2026-05-05 20:51 42.58660 -76.45984 30804 ft 500 kts 126°
2026-05-05 20:52 42.55028 -76.37901 30821 ft 503 kts 126°
2026-05-05 20:52 42.51374 -76.29808 30816 ft 503 kts 126°
2026-05-05 20:53 42.47713 -76.21719 30804 ft 503 kts 126°
2026-05-05 20:53 42.44053 -76.13631 30771 ft 503 kts 125°
2026-05-05 20:54 42.40412 -76.05627 30808 ft 502 kts 125°
2026-05-05 20:54 42.36746 -75.97596 30826 ft 501 kts 125°
2026-05-05 20:55 42.33078 -75.89569 30744 ft 502 kts 125°
2026-05-05 20:55 42.29398 -75.81541 30744 ft 503 kts 126°
2026-05-05 20:56 42.25708 -75.73508 30743 ft 503 kts 125°
2026-05-05 20:56 42.22637 -75.66832 30749 ft 503 kts 125°
2026-05-05 20:57 42.18933 -75.58806 30764 ft 503 kts 125°
2026-05-05 20:57 42.15223 -75.50781 30769 ft 503 kts 126°
2026-05-05 20:58 42.11725 -75.43242 30780 ft 503 kts 126°
2026-05-05 20:58 42.08110 -75.35225 30781 ft 505 kts 118°
2026-05-05 20:59 42.05816 -75.26286 30768 ft 506 kts 101°
2026-05-05 20:59 42.04833 -75.16887 30784 ft 506 kts 97°
2026-05-05 21:00 42.03853 -75.07492 30799 ft 506 kts 97°
2026-05-05 21:00 42.02857 -74.98158 30817 ft 506 kts 98°
2026-05-05 21:01 42.01862 -74.88794 30825 ft 505 kts 98°
2026-05-05 21:01 42.00869 -74.79426 30830 ft 505 kts 98°
2026-05-05 21:02 41.99869 -74.70083 30826 ft 504 kts 98°
2026-05-05 21:02 41.98855 -74.60743 30816 ft 504 kts 98°
2026-05-05 21:03 41.97658 -74.51460 30799 ft 503 kts 107°
2026-05-05 21:03 41.94868 -74.42915 30765 ft 499 kts 125°
2026-05-05 21:04 41.90789 -74.35501 30753 ft 497 kts 130°
2026-05-05 21:04 41.86592 -74.28145 30774 ft 496 kts 130°
2026-05-05 21:05 41.82399 -74.20805 30792 ft 494 kts 130°
2026-05-05 21:05 41.78211 -74.13509 30815 ft 492 kts 132°
2026-05-05 21:06 41.75837 -74.10266 30821 ft 485 kts 144°
2026-05-05 21:06 41.73084 -74.07700 30822 ft 478 kts 156°
2026-05-05 21:06 41.70079 -74.05894 30790 ft 470 kts 167°
2026-05-05 21:06 41.66937 -74.04861 30784 ft 461 kts 178°
2026-05-05 21:07 41.60695 -74.04919 30775 ft 448 kts 193°
2026-05-05 21:07 41.54498 -74.05877 30770 ft 448 kts 193°
2026-05-05 21:08 41.48296 -74.06834 30771 ft 448 kts 192°
2026-05-05 21:08 41.42092 -74.07799 30706 ft 449 kts 192°
2026-05-05 21:09 41.38971 -74.08288 29552 ft 455 kts 193°
2026-05-05 21:09 41.35906 -74.09280 27987 ft 461 kts 206°
2026-05-05 21:09 41.33058 -74.11119 27083 ft 451 kts 216°
2026-05-05 21:09 41.30427 -74.13336 26306 ft 445 kts 217°
2026-05-05 21:10 41.27821 -74.15531 25575 ft 439 kts 216°
2026-05-05 21:10 41.25257 -74.17699 24867 ft 434 kts 216°
2026-05-05 21:10 41.22735 -74.19843 24215 ft 428 kts 216°
2026-05-05 21:10 41.20247 -74.21965 23574 ft 422 kts 216°
2026-05-05 21:11 41.17792 -74.24059 22858 ft 417 kts 216°
2026-05-05 21:11 41.15366 -74.26123 22123 ft 412 kts 216°
2026-05-05 21:11 41.12967 -74.28159 21402 ft 407 kts 216°
2026-05-05 21:11 41.10592 -74.30168 20699 ft 403 kts 216°
2026-05-05 21:12 41.08238 -74.32162 19999 ft 399 kts 216°
2026-05-05 21:12 41.05750 -74.33793 19365 ft 403 kts 199°
2026-05-05 21:12 41.02945 -74.34071 18796 ft 412 kts 177°
2026-05-05 21:12 41.00213 -74.32853 18231 ft 422 kts 154°
2026-05-05 21:13 40.97973 -74.30285 17604 ft 430 kts 133°
2026-05-05 21:13 40.96367 -74.26932 16988 ft 434 kts 120°
2026-05-05 21:13 40.95141 -74.23330 16811 ft 422 kts 116°
2026-05-05 21:13 40.94032 -74.19845 16661 ft 398 kts 116°
2026-05-05 21:14 40.92959 -74.16601 16523 ft 370 kts 120°
2026-05-05 21:14 40.91753 -74.13687 16104 ft 355 kts 126°
2026-05-05 21:14 40.90433 -74.10967 15491 ft 348 kts 129°
2026-05-05 21:14 40.89067 -74.08346 14834 ft 345 kts 130°
2026-05-05 21:15 40.87703 -74.05753 14174 ft 343 kts 130°
2026-05-05 21:15 40.86358 -74.03152 13526 ft 341 kts 129°
2026-05-05 21:15 40.85053 -74.00566 12897 ft 337 kts 128°
2026-05-05 21:15 40.83791 -73.98017 12243 ft 334 kts 128°
2026-05-05 21:16 40.82518 -73.95414 11607 ft 331 kts 128°
2026-05-05 21:16 40.81278 -73.92858 10980 ft 329 kts 128°
2026-05-05 21:16 40.80047 -73.90331 10377 ft 326 kts 128°
2026-05-05 21:16 40.78818 -73.87832 9800 ft 323 kts 128°
2026-05-05 21:17 40.77590 -73.85360 9196 ft 320 kts 129°
2026-05-05 21:17 40.76384 -73.82943 8894 ft 310 kts 129°
2026-05-05 21:17 40.75195 -73.80568 8850 ft 310 kts 129°
2026-05-05 21:17 40.74001 -73.78189 8849 ft 311 kts 129°
2026-05-05 21:18 40.72808 -73.75811 8875 ft 309 kts 129°
2026-05-05 21:18 40.71675 -73.73535 8873 ft 284 kts 129°
2026-05-05 21:18 40.70632 -73.71433 8882 ft 268 kts 130°
2026-05-05 21:18 40.69623 -73.69420 8871 ft 266 kts 130°
2026-05-05 21:19 40.68597 -73.67389 8873 ft 265 kts 130°
2026-05-05 21:19 40.67571 -73.65366 8873 ft 265 kts 130°
2026-05-05 21:19 40.66547 -73.63345 8878 ft 266 kts 131°
2026-05-05 21:19 40.65520 -73.61316 8881 ft 266 kts 131°
2026-05-05 21:20 40.64490 -73.59282 8880 ft 267 kts 131°
2026-05-05 21:20 40.63463 -73.57249 8897 ft 267 kts 131°